Regional Weather Roundup
Issued by NWS

Home | Current Version | Previous Version | Text Only | Print | Product List | Glossary Off
Versions: 1 2 3 4 5 6 7 8 9 10 11 12 13 14 15 16 17 18 19 20 21 22 23 24 25 26 27 28 29 30 31 32 33 34 35 36 37 38 39 40 41 42 43 44 45 46 47 48 49 50

000
ASUS43 KBIS 091702
RWRND

NORTH DAKOTA REGIONAL WEATHER ROUNDUP
NATIONAL WEATHER SERVICE BISMARCK ND
1100 AM CST FRI DEC 09 2016

NOTE: "FAIR" INDICATES FEW OR NO CLOUDS BELOW 12,000 FEET WITH NO
SIGNIFICANT WEATHER AND/OR OBSTRUCTIONS TO VISIBILITY.


NDZ001>003-009>011-017-091800-
NORTHWEST NORTH DAKOTA

CITY           SKY/WX    TMP DP  RH WIND       PRES   REMARKS
WILLISTON      CLOUDY    -8 -11  86 CALM      30.60R
MINOT          CLOUDY   -10 -15  78 NW14      30.57R WCI -31
MINOT AFB      CLOUDY   -13 -19  76 NW12      30.57R WCI -34
$$

NDZ018>021-031>035-040>046-091800-
SOUTHWEST NORTH DAKOTA

CITY           SKY/WX    TMP DP  RH WIND       PRES   REMARKS
BISMARCK       CLOUDY    -1  -7  75 NW7       30.58S WCI -14
DICKINSON      CLOUDY   -14 -18  82 NW3       30.46R
GARRISON         N/A     -9 -14  78 NW10      30.54R WCI -27
HETTINGER ARPT CLOUDY    -7 -10  87 NE3       30.46S FOG
$$

NDZ004>008-012>016-024-026-027-054-091800-
NORTHEAST NORTH DAKOTA

CITY           SKY/WX    TMP DP  RH WIND       PRES   REMARKS
GRAND FORKS    CLOUDY     4  -3  73 NW10      30.60R WCI -11
GRND FRKS AFB  CLOUDY     0  -7  71 NW9       30.60R WCI -15
DEVILS LAKE    PTSUNNY   -7 -10  87 W10       30.56S WCI -25
$$

NDZ022-023-025-028>030-036>039-047>053-091800-
SOUTHEAST NORTH DAKOTA

CITY           SKY/WX    TMP DP  RH WIND       PRES   REMARKS
FARGO          CLOUDY     5  -3  69 NW14      30.60R WCI -12
JAMESTOWN      SUNNY     -5  -9  83 NW9       30.55S WCI -22
$$




USA.gov is the U.S. government's official web portal to all federal, state and local government web resources and services.